sat.trackr.live / text

‹ back to catalog

STARLINK-4409

NORAD 53203 · 2022-084Q

PAYLOAD ACTIVE UNKNOWN

§ Identity

Operator
Country
US
Launch date
2022-07-22
Launch site
AFWTR
Launch vehicle
Mass (kg)
RCS (m²)

Purposes: comms

External: N2YO · Heavens-Above · Gunter

§ Orbital elements

Epoch: 2026-09-20T04:31:02.838720Z

Period
93.91 min
Inclination
97.2842°
Eccentricity
0.0001341
Mean motion
15.33435516 rev/d
Perigee alt
464.7 km
Apogee alt
466.5 km
Semi-major
6,843.7 km
B*
2.0623e-5
RAAN
318.9474°
Arg perigee
89.4879°
Mean anomaly
270.6518°
Rev number
22,870

§ Raw data

STARLINK-44091 53203U 22084Q   26263.18822730  .00000591  00000+0  20623-4 0  99902 53203  97.2842 318.9474 0001341  89.4879 270.6518 15.33435516228701

JSON: /api/v1/satellites/53203 · /tle

For live sub-satellite position, see the globe view (requires WebGL).

§ Visibility from observer

Set your observer location to see the next 7 days of passes ≥ 10°. The values pass through the URL so the page stays shareable.

No JS? Fill the form by hand. The geolocation button needs JavaScript.